Погода в Василевичи

Погода в Василевичи : погода сейчас, прогноз погоды и архив. Всё, что Вы хотите узнать о погоде в Василевичи!

Хотите узнать прогноз погоды в Василевичи? Тогда Вам сюда: Погода в Василевичи

Поиск расширенной информации на нашем сайте:

Другие новости

Новости СМИ2

Главная страница сайта

Новости сайта

03.07.2017

Напоминаем, что на нашем специализированном сайте Метеоцентр.Азия вы можете получить высокодетализированные автоматические прогнозы погоды по пунктам России, СНГ и мира в авиационном формате (включающие направление и скорость ветра, видимость, явления погоды, количество и форму облачности, нижнюю и верхнюю границу облачности).


Погода в Василевичи - сегодня

Время (UTC), дата Ветер
(°,м/с) 
Видим.   Явления Облачность Т
(°С)
Тd
(°С)
f(%) Тe
(°С)
Pmin
(гПа)
dP
(гПа)
Po
(мм)
O2
(г/м3)
Тmin Tmax R s Состояние
почвы
00 19.06.18 тихо ()   4000 м  дымка  4/0 верхняя 
[Ci fib]
+15.4 +14.8 96 +24  1017.1  -0.1  750  283           
03 19.06.18 тихо ()   4000 м  дымка  8/0 средняя, верхняя 
[Ac trans|Ci sp]
+15.6 +14.4 93 +23  1017.2  0.1  750  283           
06 19.06.18 тихо ()   10 км    8/0 средняя 
[Ac trans]
+23.4 +16.6 66 +35  1017.2  0.5  751  275  +13.6         
09 19.06.18 270 (З) 20000 м    8/4 600 м средняя, верхняя 
[Cu med, cong|Ac trans|Ci fib]
+27.3 +14.2 45 +35  1016.5  -0.4  750  272           
12 19.06.18 270 (З) 20000 м    6/6 600 м 
[Cu med, cong]
+28.7 +14.4 42 +36  1015.3  -1.1  749  270           
15 19.06.18 290 (З) 20000 м    8/8 600 м кучево-дожд., верхняя 
[Cb calv|Cc]
+27.7 +14.7 45 +36  1014.3  -1  749  271           
18 19.06.18 тихо ()   10 км    6/3 600 м кучево-дожд., верхняя 
[Cb calv|Ci fib]
+23.9 +16.4 63 +35  1014.4  -0.2  749  274    +30       
00 20.06.18 310 (СЗ) 10 км  {ливн. осадки}  3/0 верхняя 
[Ci fib]
+18.7 +13.1 70 +26  1016.9  1.3  750  280           
03 20.06.18 310 (СЗ) 10 км    10/0 верхняя 
[Ci fib]
+17.5 +12.2 71 +22  1018.3  1.3  751  282         
06 20.06.18 320 (СЗ) 10 км    ясно 
+20.5 +12 58 +24  1018.9  0.8  752  279  +16.5       
09 20.06.18 300 (СЗ) 5{10}  20000 м    ясно 
+23.1 +9.1 41 +23  1018.6  -0.1  752  278           
12 20.06.18 300 (СЗ) 5{10}  20000 м    ясно 
+25.6 +8.7 34 +26  1017.3  -1.1  751  275           
15 20.06.18 270 (З) 5{10}  20000 м    1/1 600 м 
[Cu hum]
+26.4 +9 33 +26  1016.4  -0.9  750  274           
18 20.06.18 280 (З) 2{10}  20000 м    ясно 
+23.5 +9.5 41 +24  1015.9  -0.6  750  276    +27.3       
21 20.06.18 тихо ()   10 км    ясно 
+16.6 +10 65 +18  1017.3  0.9  750  283           
00 21.06.18 тихо ()   10 км    ясно 
+12.8 +8.9 77 +13  1018  0.4  751  287           
09 21.06.18 230 (ЮЗ) 20000 м    ясно 
+26.2 +8.5 33 +26  1015.8  -1.6  750  274           
12 21.06.18 200 (Ю) 20000 м    3/3 1000 м 
[Cu hum]
+29.1 +10.2 31 +31  1013.2  -2.3  748  271           
15 21.06.18 210 (ЮЗ) 20000 м    4/4 600 м 
[Cu hum]
+30.2 +11.4 31 +33  1011  -2.1  746  269           
18 21.06.18 230 (ЮЗ) 10 км    8/0 верхняя 
[Ci fib]
+26.1 +13 44 +32  1009.7  -1.6  745  272    +30.6       
21 21.06.18 180 (Ю) 10 км    6/0 верхняя 
[Ci fib]
+21 +13.4 62 +27  1009.4  -0.6  745  276           
00 22.06.18 180 (Ю) 10 км    10/0 верхняя 
[Cs]
+19 +13.4 70 +26  1008.5  -1  744  278           
06 22.06.18 200 (Ю) 10 км  в посл. час гроза{ливн. осадки}  9/9 600 м кучево-дожд. 
[Cb calv]
+20 +17.9 88 +34  1007.4  743  275  +18.1       
09 22.06.18 300 (СЗ) 10 км    10/10 600 м кучево-дожд. 
[Cb calv]
+17.5 +15.4 87 +28  1010.1  2.5  745  279           
12 22.06.18 320 (СЗ) 10 км  {ливн. осадки}  9/9 600 м кучево-дожд. 
[Cb calv]
+17.5 +12.5 72 +23  1011.3  1.1  746  280      0.5     
Время (UTC), дата Ветер
(°,м/с) 
Видим.   Явления Облачность Т
(°С)
Тd
(°С)
f(%) Тe
(°С)
Pmin
(гПа)
dP
(гПа)
Po
(мм)
O2
(г/м3)
Тmin Tmax R s Состояние
почвы

Для получения пояснительной информации подведите курсор к названию столбца.

ПОГОДА в Василевичи - архив

Всё, что Вы хотите узнать о погоде в Василевичи - удобно и подробно!

Выберите нужную дату (начиная с 1 января 2015* года) и нажмите кнопку "Найти".
Будут отображены архивные сводки погоды по пункту Василевичи, начиная с указанной даты.


Отображать данные в формате CSV (для использования в таблицах Excel)


Внимание! Наш архив погоды предназначен исключительно для личного некоммерческого использования в познавательных целях. Если Вам необходимы официальные справки о состоянии погоды (для производственных, юридических, коммерческих и т.п. целей), обращайтесь в органы Росгидромета.

*Примечание: данная дата относится к архиву по метеостанциям СССР (Россия, СНГ, Балтия).
Архив по метеостанциям Зарубежной Европы и Азии (кроме Китая) хранится 10 дней, по другим регионам земного шара (Китай, Африка, Америка, Австралия, Океания) - 1 день.

Василевичи - район местоположения метеостанции


Название, широта, долгота, высота метеостанции:
Василевичи 52.2°ш. 29.8°д. 142 м над ур. моря [Беларусь]

Дополнительная информация

В oтличие oт бoльшинства пoгoдных сайтoв мы публикуем пoдрoбную метеoинфoрмацию в детальнoм прoфессиoнальнoм фoрмате.

Характеристики температуры и влажнoсти вoздуха измеряются на высoте 2 м в тени вдали oт зданий и деревьев.
Скoрoсть ветра измеряется на высoте 10 м (на урoвне рoста челoвека скoрoсть ветра ниже в 1.5-2 раза). Если метеoстанция нахoдится в гoрoде или в лесу, тo скoрoсть ветра занижена на 2-4 м/с пo сравнению с oткрытым местoм. Скoрoсть ветра над акватoриями крупных рек и oзёр, а также на вершинах хoлмoв на 2-5 м/с выше, чем в oбычных услoвиях.
Атмoсфернoе давление в разных тoчках местнoсти мoжет значительнo oтличаться oт давления на метеoстанции, в зависимoсти oт услoвий рельефа (при пoдъёме на 10 м давление пoнижается примернo на 1 мм рт.ст.).